Wind_Speed
10 9 9 9 9 8 7 6 5 4 4 4 4 4 4 4 4 3 4 4 4 5 6 7 7 8 9 9 10 10 10 10 10 9 10 10 10 9 9 8 7 7 6
11 10 10 9 8 7 6 4 4 3 3 3 3 3 3 4 4 3 3 4 4 5 5 6 7 8 8 9 10 11 11 11 11 11 11 11 11 11 10 10 9 9 8
11 10 9 8 7 6 5 4 3 2 2 1 1 2 3 3 3 3 3 3 4 5 5 5 6 7 9 9 9 10 11 11 11 12 12 12 12 12 12 12 12 11 11
11 9 8 7 6 5 4 3 2 1 1 1 1 1 2 2 2 2 2 3 3 4 5 5 6 7 8 9 10 10 10 11 11 11 12 13 14 14 14 14 13 13 13
10 9 8 7 6 5 4 3 2 1 1 1 1 1 1 1 1 1 2 2 3 3 4 5 6 6 6 7 8 9 10 10 11 11 12 13 14 15 15 15 15 15 15
10 9 8 7 6 5 4 3 2 1 1 1 1 1 1 1 0 1 1 2 3 3 3 4 4 5 6 6 7 8 9 10 10 10 11 12 14 15 15 16 16 17 17
10 9 8 8 7 6 4 4 3 2 2 2 2 2 2 1 1 1 0 1 1 2 2 3 3 4 5 6 6 7 8 9 10 10 11 11 12 14 15 16 16 17 17
11 10 9 8 8 7 5 4 3 3 2 2 2 2 2 2 1 1 1 0 0 1 1 2 3 4 5 6 6 7 7 8 9 10 11 11 12 13 15 16 16 17 18
12 11 10 9 8 8 6 5 4 3 3 2 2 2 2 2 2 2 2 1 1 1 1 2 3 3 4 5 6 6 7 8 9 10 11 11 12 13 14 16 18 18 19
13 12 10 10 9 9 7 6 5 5 4 3 2 1 0 1 1 1 1 2 2 2 2 3 3 3 4 5 5 6 7 7 9 10 11 11 12 13 14 16 17 18 20
14 13 12 11 10 10 9 8 7 6 5 4 3 2 2 1 1 2 2 3 3 4 4 4 4 4 4 5 5 6 7 8 9 10 11 12 12 13 14 15 16 17 19
15 14 13 12 11 11 10 9 8 8 7 6 5 4 3 3 3 3 4 4 5 5 6 6 6 6 6 7 7 7 8 9 9 10 11 12 12 13 14 15 16 18 19
16 15 14 13 13 12 12 11 10 10 9 8 7 7 6 6 6 6 6 6 7 7 8 8 9 9 9 9 9 9 9 10 11 11 12 12 13 14 15 16 16 17 19
16 16 16 15 14 13 13 12 12 12 11 11 10 10 9 9 9 9 9 9 10 10 11 11 11 12 12 12 12 12 12 13 13 14 14 14 15 16 16 17 17 18 19
16 17 17 17 16 15 15 15 14 14 13 13 13 13 13 13 13 13 13 13 13 14 14 14 14 15 15 15 15 16 16 16 16 16 17 17 17 18 18 19 19 20 20
17 18 18 18 18 17 17 17 17 17 17 17 17 17 17 17 17 17 17 17 18 18 18 18 18 18 18 18 18 19 19 19 19 19 19 19 20 20 20 21 21 22 22
19 19 19 20 20 20 20 20 20 20 20 20 21 21 21 21 21 21 21 22 22 22 22 22 22 22 22 22 22 22 22 23 22 22 22 22 22 23 23 23 23 24 24
20 21 21 22 22 22 23 23 23 23 23 24 24 24 25 25 25 25 26 26 26 26 26 26 25 26 26 26 26 26 26 26 26 26 26 26 26 26 26 26 26 26 27
21 21 22 23 24 25 25 25 26 26 26 27 27 28 28 29 29 29 29 30 30 30 30 30 30 29 29 29 29 29 29 30 30 30 30 29 29 29 29 29 29 29 29
21 23 24 25 26 27 27 28 28 29 29 30 30 31 32 32 33 33 33 34 34 34 34 34 34 33 33 33 33 33 33 33 33 33 33 33 33 33 33 32 32 32 32
22 24 25 27 28 29 30 30 31 31 32 32 33 34 35 35 36 36 37 37 37 37 37 37 37 36 36 36 37 36 36 37 37 37 37 37 37 36 36 36 36 36 36
23 24 27 28 29 30 32 33 34 34 35 36 35 36 37 38 38 39 39 40 40 40 40 39 39 39 39 40 40 40 40 40 40 41 41 40 41 40 40 40 40 39 39
24 26 27 29 31 31 32 34 34 35 36 37 38 38 39 40 41 41 41 41 42 42 42 42 42 41 42 44 44 44 44 44 43 44 45 43 44 44 44 43 43 43 43
27 28 29 30 32 33 35 36 37 37 37 38 39 40 41 42 42 43 43 44 44 44 44 44 44 44 45 46 47 47 46 46 45 46 48 46 46 47 47 47 47 47 47
29 30 31 33 33 34 36 37 38 39 40 41 41 42 43 43 44 45 45 45 45 46 46 46 46 47 47 48 49 49 49 49 48 47 49 49 48 49 49 49 50 51 51
30 31 33 34 35 37 38 38 40 42 43 43 43 44 44 45 46 47 47 47 47 47 48 48 48 48 48 49 50 51 51 51 51 50 50 52 52 53 52 51 52 53 54
Wind_Direction
269 279 288 290 293 297 302 300 300 307 305 301 295 285 276 276 279 268 260 254 239 233 238 240 239 235 234 234 234 235 234 235 235 233 231 230 229 230 229 231 234 235 238
265 274 281 284 287 288 290 291 299 304 308 310 303 290 278 273 269 257 254 252 244 242 245 244 239 237 236 238 241 240 239 239 237 240 238 235 234 233 233 235 238 239 241
261 269 273 276 276 277 280 279 287 300 312 310 299 290 286 272 256 249 252 250 247 247 248 249 245 243 241 241 245 244 241 240 240 242 242 239 239 238 239 240 241 244 246
253 257 260 264 262 261 262 262 268 290 315 329 332 313 289 272 266 255 256 248 244 245 247 249 248 249 250 247 246 246 244 241 243 245 244 242 242 243 243 244 244 245 248
242 243 247 249 244 242 243 236 236 258 307 352 22 38 35 313 270 257 245 243 242 249 253 251 251 254 258 257 254 251 247 244 245 248 248 245 243 243 245 246 246 247 249
232 234 236 234 229 226 219 211 199 175 131 87 81 81 65 37 329 274 250 248 249 255 255 253 252 259 266 262 259 256 252 250 249 251 255 252 248 247 248 249 249 250 251
229 232 229 223 216 210 200 194 183 167 136 116 104 87 69 51 32 18 301 251 247 256 266 268 268 271 275 271 263 260 255 255 254 257 260 258 254 251 252 253 253 255 255
228 224 218 214 210 205 197 189 181 171 151 134 118 99 87 64 44 42 42 83 238 274 279 284 287 286 283 279 273 267 260 258 260 261 263 261 258 257 254 254 256 257 257
221 217 216 215 209 203 198 193 189 185 172 157 137 116 94 72 61 48 47 40 6 340 320 311 301 297 289 281 277 275 270 266 265 267 269 267 264 265 263 260 261 260 260
216 215 217 216 210 206 203 201 201 198 192 192 194 179 115 51 48 33 20 355 352 349 344 331 310 299 294 285 280 278 278 278 274 273 272 271 269 267 267 267 266 264 262
215 216 217 216 214 211 209 209 210 210 210 214 225 234 252 282 319 334 336 334 333 330 321 320 322 318 311 300 290 284 275 276 280 279 275 273 272 271 271 270 268 267 266
216 219 220 219 217 216 217 217 218 219 221 229 237 245 257 276 291 300 308 314 314 311 309 309 309 309 307 304 300 294 285 280 282 283 281 278 277 276 274 274 273 270 269
219 221 223 223 223 222 221 221 223 225 231 239 246 254 263 273 284 288 292 296 297 298 299 300 301 300 297 295 293 292 291 287 285 284 284 283 282 281 279 278 277 275 272
222 224 226 227 227 226 227 228 231 235 240 247 252 257 263 269 275 281 285 288 289 291 292 292 292 292 290 289 289 289 290 289 288 286 284 283 282 281 280 280 279 278 276
227 229 231 233 232 232 234 236 238 242 247 252 257 262 266 270 273 277 280 281 283 285 286 286 286 287 286 285 284 285 285 286 286 285 283 282 281 280 279 279 278 277 276
232 235 235 237 237 237 240 242 244 247 251 255 260 264 267 271 274 276 278 279 280 281 282 282 282 282 282 282 281 281 281 281 283 283 283 282 282 281 280 280 279 278 277
238 239 239 240 240 242 244 247 250 253 255 259 262 265 268 271 273 276 278 280 281 281 281 281 281 281 280 280 280 279 279 279 279 280 280 280 281 281 280 280 280 278 277
243 244 243 243 244 246 249 251 254 258 260 262 264 266 268 271 273 275 277 279 279 280 280 279 279 279 279 279 279 278 278 278 278 277 277 277 277 278 279 279 279 278 277
247 247 247 247 248 250 253 255 258 260 262 264 265 267 269 271 272 274 276 277 278 278 278 278 278 278 277 277 276 276 276 277 277 276 276 276 276 276 276 277 277 277 277
251 251 250 251 252 254 256 258 259 262 264 266 268 269 270 272 273 275 276 276 276 277 277 277 277 277 277 276 275 275 275 275 275 275 274 274 274 274 274 275 275 275 275
256 257 255 255 255 257 259 261 263 265 266 268 270 271 272 274 275 276 276 276 277 277 277 277 277 277 277 277 276 276 276 276 275 275 274 273 273 273 273 273 273 274 274
261 261 259 258 259 262 264 264 265 267 267 268 270 270 272 274 275 276 277 277 277 277 278 278 277 277 276 277 276 276 275 275 276 276 275 275 275 274 274 273 273 274 275
263 263 263 262 263 265 265 267 267 268 269 268 269 270 271 273 274 275 276 277 278 277 277 277 277 277 276 276 277 276 276 275 275 275 274 274 274 275 275 274 274 274 275
266 267 266 267 267 267 267 268 267 268 270 270 270 271 272 273 275 275 276 276 277 277 277 277 277 277 277 278 277 277 277 276 276 275 275 275 274 273 273 274 274 274 274
269 269 269 269 270 271 271 270 270 271 271 271 272 273 273 273 274 275 275 276 276 277 277 278 278 277 277 277 277 277 277 277 277 276 276 276 275 273 273 273 273 274 273
271 272 272 272 272 273 272 272 272 272 272 271 271 272 273 274 274 275 275 275 276 276 277 277 278 278 278 278 278 277 277 278 278 276 276 276 275 275 274 274 274 274 274
Height
5879 5879 5879 5879 5879 5880 5880 5880 5881 5881 5881 5881 5881 5881 5881 5881 5881 5882 5882 5882 5883 5884 5884 5885 5886 5887 5888 5889 5890 5891 5892 5893 5894 5895 5896 5897 5898 5899 5900 5901 5902 5903 5904
5877 5878 5878 5878 5878 5878 5879 5880 5880 5880 5880 5880 5880 5880 5880 5880 5880 5881 5881 5881 5882 5882 5883 5884 5884 5885 5886 5887 5888 5889 5890 5891 5892 5893 5894 5895 5897 5898 5899 5900 5901 5902 5902
5876 5876 5876 5877 5877 5877 5878 5879 5879 5880 5880 5880 5880 5879 5879 5879 5880 5880 5880 5880 5881 5881 5882 5882 5883 5883 5884 5885 5886 5887 5888 5889 5890 5891 5892 5893 5894 5896 5897 5898 5899 5900 5901
5874 5875 5875 5876 5876 5877 5877 5878 5879 5879 5879 5879 5879 5879 5879 5879 5879 5879 5879 5880 5880 5881 5881 5881 5882 5882 5883 5883 5884 5885 5885 5887 5888 5888 5889 5890 5892 5893 5894 5895 5896 5898 5899
5872 5873 5874 5875 5875 5876 5877 5877 5878 5879 5879 5879 5879 5879 5879 5879 5879 5879 5879 5879 5880 5880 5880 5880 5881 5881 5881 5881 5882 5882 5883 5884 5885 5886 5886 5888 5889 5890 5891 5892 5894 5895 5896
5871 5872 5873 5874 5874 5875 5876 5877 5878 5878 5879 5879 5879 5879 5879 5879 5879 5879 5879 5879 5879 5879 5879 5880 5880 5880 5880 5880 5880 5881 5881 5882 5883 5883 5884 5885 5886 5887 5888 5889 5890 5892 5893
5870 5871 5872 5873 5874 5875 5875 5876 5877 5878 5878 5879 5879 5879 5879 5879 5879 5879 5879 5879 5879 5879 5879 5879 5879 5879 5879 5879 5879 5879 5879 5880 5880 5881 5882 5882 5883 5884 5885 5886 5887 5888 5889
5868 5870 5871 5872 5873 5874 5875 5876 5877 5878 5878 5879 5879 5880 5879 5880 5879 5879 5879 5878 5878 5878 5878 5878 5878 5878 5877 5877 5877 5877 5878 5878 5878 5879 5879 5880 5880 5881 5882 5883 5884 5885 5886
5867 5869 5870 5871 5872 5873 5874 5875 5877 5878 5878 5879 5879 5880 5880 5880 5879 5879 5879 5878 5878 5878 5878 5877 5877 5877 5876 5876 5876 5876 5876 5876 5876 5877 5877 5877 5878 5878 5879 5880 5880 5881 5882
5865 5867 5869 5870 5872 5873 5874 5875 5876 5877 5878 5879 5879 5880 5880 5880 5880 5879 5879 5878 5878 5877 5877 5877 5876 5876 5875 5875 5875 5875 5875 5875 5875 5875 5875 5875 5875 5875 5876 5876 5876 5877 5877
5864 5866 5868 5869 5871 5872 5873 5874 5876 5877 5878 5878 5879 5879 5879 5879 5879 5879 5879 5878 5878 5877 5877 5876 5876 5875 5874 5874 5873 5873 5873 5873 5872 5872 5872 5872 5872 5872 5873 5873 5873 5873 5873
5862 5864 5866 5868 5869 5871 5872 5873 5875 5876 5877 5877 5878 5878 5879 5879 5879 5878 5878 5878 5877 5877 5876 5875 5875 5874 5873 5873 5872 5871 5871 5870 5870 5870 5869 5869 5869 5869 5869 5869 5869 5869 5869
5861 5863 5864 5866 5868 5869 5871 5872 5873 5874 5875 5876 5877 5877 5877 5877 5877 5877 5877 5876 5876 5875 5875 5874 5873 5872 5872 5871 5870 5870 5869 5868 5867 5867 5866 5866 5866 5865 5865 5865 5865 5865 5865
5858 5860 5862 5864 5866 5867 5869 5870 5871 5873 5873 5874 5875 5875 5876 5876 5875 5875 5875 5874 5874 5873 5872 5872 5871 5870 5869 5869 5868 5867 5866 5865 5865 5864 5863 5863 5862 5862 5861 5861 5861 5860 5860
5856 5858 5860 5862 5863 5865 5866 5868 5869 5870 5871 5872 5872 5873 5873 5873 5873 5873 5872 5872 5872 5870 5870 5869 5868 5867 5866 5865 5865 5864 5863 5862 5861 5860 5860 5859 5858 5857 5857 5856 5856 5855 5855
5853 5855 5857 5859 5860 5862 5863 5865 5866 5867 5867 5868 5869 5869 5869 5870 5869 5869 5869 5868 5868 5867 5866 5865 5864 5863 5862 5861 5860 5859 5859 5858 5857 5856 5855 5854 5853 5853 5852 5851 5850 5850 5850
5850 5852 5853 5855 5857 5858 5860 5861 5862 5863 5863 5864 5864 5865 5865 5865 5865 5864 5864 5863 5863 5862 5861 5860 5859 5858 5857 5856 5855 5854 5853 5852 5851 5850 5849 5849 5848 5847 5846 5845 5845 5844 5843
5846 5848 5849 5851 5852 5854 5855 5856 5857 5858 5858 5859 5859 5859 5859 5859 5859 5859 5858 5858 5857 5856 5856 5854 5853 5852 5851 5850 5849 5848 5847 5846 5845 5844 5843 5842 5841 5841 5840 5839 5838 5837 5837
5842 5843 5845 5846 5848 5849 5850 5851 5852 5852 5852 5853 5853 5853 5853 5852 5852 5852 5851 5851 5850 5849 5848 5847 5846 5845 5844 5843 5842 5840 5839 5838 5837 5837 5836 5835 5834 5833 5832 5831 5830 5830 5829
5838 5839 5840 5841 5842 5843 5844 5845 5845 5845 5846 5846 5846 5845 5845 5845 5844 5844 5843 5842 5841 5841 5840 5839 5838 5837 5836 5834 5833 5832 5831 5830 5829 5828 5827 5826 5825 5825 5824 5823 5822 5821 5820
5833 5833 5835 5835 5836 5837 5837 5838 5838 5838 5838 5838 5838 5837 5837 5836 5836 5835 5834 5833 5832 5832 5831 5830 5829 5828 5826 5825 5824 5823 5822 5821 5820 5819 5818 5817 5816 5815 5814 5813 5812 5811 5811
5827 5828 5829 5829 5830 5830 5830 5830 5830 5830 5830 5830 5829 5828 5828 5827 5826 5825 5824 5823 5822 5821 5820 5819 5819 5818 5816 5814 5813 5813 5812 5811 5811 5809 5807 5807 5805 5804 5803 5802 5802 5801 5800
5821 5821 5822 5822 5822 5822 5822 5822 5821 5821 5820 5820 5819 5818 5817 5817 5815 5814 5813 5812 5811 5810 5809 5808 5808 5806 5805 5803 5802 5801 5800 5799 5799 5797 5795 5796 5794 5792 5791 5790 5790 5789 5788
5814 5814 5814 5814 5814 5813 5812 5812 5812 5811 5811 5810 5808 5807 5807 5806 5805 5803 5802 5801 5800 5798 5797 5796 5796 5794 5793 5791 5789 5788 5787 5786 5786 5784 5782 5782 5782 5779 5778 5777 5776 5776 5775
5807 5807 5806 5806 5805 5804 5803 5802 5802 5801 5800 5799 5798 5797 5796 5795 5793 5791 5790 5789 5788 5787 5784 5783 5782 5781 5780 5778 5776 5774 5773 5771 5771 5771 5768 5767 5767 5765 5765 5764 5762 5761 5760
5798 5798 5797 5797 5796 5794 5793 5792 5791 5790 5789 5788 5787 5785 5784 5782 5781 5779 5778 5777 5775 5774 5772 5770 5769 5768 5766 5764 5762 5760 5758 5757 5756 5756 5755 5751 5751 5749 5750 5750 5748 5745 5744